Time,TemperatureF,DewpointF,PressureIn,WindDirection,WindDirectionDegrees,WindSpeedMPH,WindSpeedGustMPH,Humidity,HourlyPrecipIn,Conditions,Clouds,dailyrainin,SoftwareType,DateUTC
2013-03-20 00:04:00,30.3,14.3,30.05,ENE,68,0.0,0.0,51,0.00,,,0.00,WUHU216HW,2013-03-20 06:04:00,
2013-03-20 00:09:00,30.0,14.0,30.05,ENE,68,0.0,0.0,51,0.00,,,0.00,WUHU216HW,2013-03-20 06:09:00,
2013-03-20 00:14:00,29.8,13.9,30.04,ENE,68,0.0,0.0,51,0.00,,,0.00,WUHU216HW,2013-03-20 06:14:00,
2013-03-20 00:19:00,29.6,14.1,30.04,ENE,68,0.0,0.0,52,0.00,,,0.00,WUHU216HW,2013-03-20 06:19:00,
2013-03-20 00:24:00,29.4,14.4,30.04,ENE,68,0.0,0.0,53,0.00,,,0.00,WUHU216HW,2013-03-20 06:24:00,
2013-03-20 00:29:00,29.3,14.2,30.04,ENE,68,0.0,0.0,53,0.00,,,0.00,WUHU216HW,2013-03-20 06:29:00,
2013-03-20 00:34:00,29.1,14.9,30.04,ENE,68,0.0,0.0,55,0.00,,,0.00,WUHU216HW,2013-03-20 06:34:00,
2013-03-20 00:39:00,28.9,14.7,30.03,ENE,68,0.0,0.0,55,0.00,,,0.00,WUHU216HW,2013-03-20 06:39:00,
2013-03-20 00:45:00,28.9,14.7,30.03,ENE,68,0.0,0.0,55,0.00,,,0.00,WUHU216HW,2013-03-20 06:45:00,
2013-03-20 00:50:00,28.9,14.7,30.03,ENE,68,0.0,0.0,55,0.00,,,0.00,WUHU216HW,2013-03-20 06:50:00,
2013-03-20 00:55:00,28.7,15.0,30.02,ENE,68,0.0,1.1,55,0.00,,,0.00,WUHU216HW,2013-03-20 06:55:00,
2013-03-20 01:00:00,28.5,15.2,30.03,ENE,68,0.0,1.1,57,0.00,,,0.00,WUHU216HW,2013-03-20 07:00:00,
2013-03-20 01:05:00,28.2,15.3,30.02,ENE,68,0.0,0.0,58,0.00,,,0.00,WUHU216HW,2013-03-20 07:05:00,
2013-03-20 01:10:00,28.2,15.3,30.02,ENE,68,0.0,0.0,58,0.00,,,0.00,WUHU216HW,2013-03-20 07:10:00,
2013-03-20 01:15:00,28.0,15.1,30.02,ENE,68,2.6,2.6,58,0.00,,,0.00,WUHU216HW,2013-03-20 07:15:00,
2013-03-20 01:21:00,27.6,14.7,30.01,ENE,68,0.6,2.6,58,0.00,,,0.00,WUHU216HW,2013-03-20 07:21:00,
2013-03-20 01:26:00,27.6,14.7,30.01,ENE,68,0.0,2.6,58,0.00,,,0.00,WUHU216HW,2013-03-20 07:26:00,
2013-03-20 01:31:00,27.6,14.7,30.01,ENE,68,0.0,0.0,58,0.00,,,0.00,WUHU216HW,2013-03-20 07:31:00,
2013-03-20 01:36:00,27.8,15.3,30.01,ENE,68,0.0,0.0,59,0.00,,,0.00,WUHU216HW,2013-03-20 07:36:00,
2013-03-20 01:41:00,28.0,15.5,30.00,ENE,68,0.0,0.0,59,0.00,,,0.00,WUHU216HW,2013-03-20 07:41:00,
2013-03-20 01:46:00,28.0,15.5,30.00,ENE,68,0.0,0.0,59,0.00,,,0.00,WUHU216HW,2013-03-20 07:46:00,
2013-03-20 01:51:00,28.0,15.9,30.00,ENE,68,0.0,0.0,60,0.00,,,0.00,WUHU216HW,2013-03-20 07:51:00,
2013-03-20 01:56:00,27.8,15.8,30.00,ENE,68,0.0,2.0,60,0.00,,,0.00,WUHU216HW,2013-03-20 07:56:00,
2013-03-20 02:01:00,27.6,15.6,29.99,ENE,68,0.0,2.0,60,0.00,,,0.00,WUHU216HW,2013-03-20 08:01:00,
2013-03-20 02:07:00,27.6,15.6,29.99,ENE,68,0.0,0.0,60,0.00,,,0.00,WUHU216HW,2013-03-20 08:07:00,
2013-03-20 02:12:00,27.6,15.6,29.98,ENE,68,0.0,0.0,60,0.00,,,0.00,WUHU216HW,2013-03-20 08:12:00,
2013-03-20 02:17:00,27.6,15.9,29.98,ENE,68,0.0,0.0,61,0.00,,,0.00,WUHU216HW,2013-03-20 08:17:00,
2013-03-20 02:22:00,27.6,16.3,29.98,ENE,68,0.0,0.0,62,0.00,,,0.00,WUHU216HW,2013-03-20 08:22:00,
2013-03-20 02:27:00,27.6,16.3,29.98,ENE,68,0.0,0.0,62,0.00,,,0.00,WUHU216HW,2013-03-20 08:27:00,
2013-03-20 02:32:00,27.8,16.5,29.98,ENE,68,0.0,0.0,62,0.00,,,0.00,WUHU216HW,2013-03-20 08:32:00,
2013-03-20 02:37:00,28.0,16.7,29.98,ENE,68,0.0,0.0,62,0.00,,,0.00,WUHU216HW,2013-03-20 08:37:00,
2013-03-20 02:42:00,27.8,16.7,29.97,ENE,68,0.0,0.0,62,0.00,,,0.00,WUHU216HW,2013-03-20 08:42:00,
2013-03-20 02:47:00,27.6,16.3,29.97,ENE,68,0.0,2.4,62,0.00,,,0.00,WUHU216HW,2013-03-20 08:47:00,
2013-03-20 02:52:00,27.6,16.3,29.97,ENE,68,0.0,2.4,62,0.00,,,0.00,WUHU216HW,2013-03-20 08:52:00,
2013-03-20 02:57:00,27.6,16.7,29.97,ENE,68,0.0,0.0,63,0.00,,,0.00,WUHU216HW,2013-03-20 08:57:00,
2013-03-20 03:02:00,27.8,16.5,29.96,ENE,68,0.0,0.0,62,0.00,,,0.00,WUHU216HW,2013-03-20 09:02:00,
2013-03-20 03:08:00,28.0,16.7,29.96,ENE,68,0.0,0.0,62,0.00,,,0.00,WUHU216HW,2013-03-20 09:08:00,
2013-03-20 03:13:00,28.0,17.0,29.96,ENE,68,0.0,0.0,63,0.00,,,0.00,WUHU216HW,2013-03-20 09:13:00,
2013-03-20 03:18:00,27.8,17.0,29.96,ENE,68,0.0,0.0,63,0.00,,,0.00,WUHU216HW,2013-03-20 09:18:00,
2013-03-20 03:23:00,27.8,17.0,29.95,ENE,68,0.0,0.0,64,0.00,,,0.00,WUHU216HW,2013-03-20 09:23:00,
2013-03-20 03:28:00,28.0,17.4,29.95,ENE,68,0.0,0.0,64,0.00,,,0.00,WUHU216HW,2013-03-20 09:28:00,
2013-03-20 03:33:00,28.0,17.4,29.95,ENE,68,0.0,0.0,64,0.00,,,0.00,WUHU216HW,2013-03-20 09:33:00,
2013-03-20 03:38:00,28.0,17.4,29.94,ENE,68,0.0,0.0,64,0.00,,,0.00,WUHU216HW,2013-03-20 09:38:00,
2013-03-20 03:43:00,28.0,17.4,29.94,ENE,68,0.0,0.0,64,0.00,,,0.00,WUHU216HW,2013-03-20 09:43:00,
2013-03-20 03:48:00,28.0,17.4,29.94,ENE,68,0.0,0.0,64,0.00,,,0.00,WUHU216HW,2013-03-20 09:48:00,
2013-03-20 03:53:00,28.0,17.4,29.94,ENE,68,0.0,0.0,64,0.00,,,0.00,WUHU216HW,2013-03-20 09:53:00,
2013-03-20 03:58:00,28.0,17.4,29.93,ENE,68,0.0,0.0,64,0.00,,,0.00,WUHU216HW,2013-03-20 09:58:00,
2013-03-20 04:04:00,28.2,17.6,29.92,ENE,68,0.0,0.0,64,0.00,,,0.00,WUHU216HW,2013-03-20 10:04:00,
2013-03-20 04:09:00,28.2,17.9,29.92,ENE,68,0.0,0.0,65,0.00,,,0.00,WUHU216HW,2013-03-20 10:09:00,
2013-03-20 04:14:00,28.2,17.6,29.92,ENE,68,0.0,0.0,65,0.00,,,0.00,WUHU216HW,2013-03-20 10:14:00,
2013-03-20 04:19:00,28.2,17.6,29.92,ENE,68,0.0,1.1,64,0.00,,,0.00,WUHU216HW,2013-03-20 10:19:00,
2013-03-20 04:24:00,28.2,17.6,29.91,ENE,68,0.0,1.1,64,0.00,,,0.00,WUHU216HW,2013-03-20 10:24:00,
2013-03-20 04:29:00,28.2,17.6,29.91,ENE,68,0.0,0.0,64,0.00,,,0.00,WUHU216HW,2013-03-20 10:29:00,
2013-03-20 04:34:00,28.2,17.6,29.91,ENE,68,0.0,0.0,64,0.00,,,0.00,WUHU216HW,2013-03-20 10:34:00,
2013-03-20 04:39:00,28.2,17.6,29.91,ENE,68,0.0,0.0,64,0.00,,,0.00,WUHU216HW,2013-03-20 10:39:00,
2013-03-20 04:44:00,28.2,17.6,29.91,ENE,68,0.0,0.0,64,0.00,,,0.00,WUHU216HW,2013-03-20 10:44:00,
2013-03-20 04:49:00,28.2,17.6,29.91,ENE,68,0.0,0.0,64,0.00,,,0.00,WUHU216HW,2013-03-20 10:49:00,
2013-03-20 04:54:00,28.2,17.6,29.91,ENE,68,0.0,0.0,64,0.00,,,0.00,WUHU216HW,2013-03-20 10:54:00,
2013-03-20 04:59:00,28.2,17.6,29.91,ENE,68,0.0,0.0,64,0.00,,,0.00,WUHU216HW,2013-03-20 10:59:00,
2013-03-20 05:04:00,28.2,17.9,29.91,ENE,68,0.0,2.4,65,0.00,,,0.00,WUHU216HW,2013-03-20 11:04:00,
2013-03-20 05:09:00,28.2,17.9,29.91,ENE,68,0.0,2.4,65,0.00,,,0.00,WUHU216HW,2013-03-20 11:09:00,
2013-03-20 05:14:00,28.2,17.9,29.91,ENE,68,0.0,0.0,65,0.00,,,0.00,WUHU216HW,2013-03-20 11:14:00,
2013-03-20 05:19:00,28.4,18.3,29.90,ENE,68,0.0,0.0,65,0.00,,,0.00,WUHU216HW,2013-03-20 11:19:00,
2013-03-20 05:25:00,28.4,18.3,29.90,ENE,68,0.0,0.0,65,0.00,,,0.00,WUHU216HW,2013-03-20 11:25:00,
2013-03-20 05:30:00,28.5,18.3,29.90,ENE,68,0.0,0.0,65,0.00,,,0.00,WUHU216HW,2013-03-20 11:30:00,
2013-03-20 05:35:00,28.5,18.3,29.90,ENE,68,0.0,0.0,65,0.00,,,0.00,WUHU216HW,2013-03-20 11:35:00,
2013-03-20 05:40:00,28.5,18.6,29.90,ENE,68,0.0,0.0,66,0.00,,,0.00,WUHU216HW,2013-03-20 11:40:00,
2013-03-20 05:45:00,28.5,18.6,29.90,ENE,68,0.0,0.0,66,0.00,,,0.00,WUHU216HW,2013-03-20 11:45:00,
2013-03-20 05:50:00,28.5,18.6,29.90,ENE,68,0.0,0.0,66,0.00,,,0.00,WUHU216HW,2013-03-20 11:50:00,
2013-03-20 05:55:00,28.5,18.6,29.90,ENE,68,0.0,0.0,66,0.00,,,0.00,WUHU216HW,2013-03-20 11:55:00,
2013-03-20 06:00:00,28.5,19.0,29.90,ENE,68,0.0,2.0,67,0.00,,,0.00,WUHU216HW,2013-03-20 12:00:00,
2013-03-20 06:05:00,28.5,19.3,29.90,ENE,68,2.6,2.6,68,0.00,,,0.00,WUHU216HW,2013-03-20 12:05:00,
2013-03-20 06:10:00,28.5,19.3,29.90,ENE,68,2.9,4.4,68,0.00,,,0.00,WUHU216HW,2013-03-20 12:10:00,
2013-03-20 06:15:00,28.2,19.4,29.89,ENE,68,3.5,4.4,69,0.00,,,0.00,WUHU216HW,2013-03-20 12:15:00,
2013-03-20 06:20:00,28.2,19.7,29.89,ENE,68,3.1,4.6,70,0.00,,,0.00,WUHU216HW,2013-03-20 12:20:00,
2013-03-20 06:25:00,28.0,20.1,29.89,ENE,68,0.0,4.6,72,0.00,,,0.00,WUHU216HW,2013-03-20 12:25:00,
2013-03-20 06:30:00,28.0,20.4,29.88,NE,45,4.4,6.0,73,0.00,,,0.00,WUHU216HW,2013-03-20 12:30:00,
2013-03-20 06:35:00,28.0,21.1,29.88,ESE,113,2.9,6.0,75,0.00,,,0.00,WUHU216HW,2013-03-20 12:35:00,
2013-03-20 06:40:00,28.0,21.7,29.88,NE,45,4.4,6.7,77,0.00,,,0.00,WUHU216HW,2013-03-20 12:40:00,
2013-03-20 06:46:00,28.0,22.0,29.87,ENE,68,0.0,8.5,78,0.00,,,0.00,WUHU216HW,2013-03-20 12:46:00,
2013-03-20 06:51:00,28.2,22.5,29.88,ENE,68,3.3,8.5,79,0.00,,,0.00,WUHU216HW,2013-03-20 12:51:00,
2013-03-20 06:56:00,28.2,22.5,29.87,NE,45,4.9,5.5,79,0.00,,,0.00,WUHU216HW,2013-03-20 12:56:00,
2013-03-20 07:01:00,28.2,22.2,29.87,ENE,68,3.1,5.5,78,0.00,,,0.00,WUHU216HW,2013-03-20 13:01:00,
2013-03-20 07:06:00,28.2,22.2,29.87,ESE,113,4.0,7.8,78,0.00,,,0.00,WUHU216HW,2013-03-20 13:06:00,
2013-03-20 07:11:00,28.0,22.0,29.87,ENE,68,3.8,7.8,78,0.00,,,0.00,WUHU216HW,2013-03-20 13:11:00,
2013-03-20 07:16:00,28.0,22.3,29.87,ENE,68,2.0,5.5,79,0.00,,,0.00,WUHU216HW,2013-03-20 13:16:00,
2013-03-20 07:22:00,28.0,22.3,29.87,ESE,113,0.0,4.9,79,0.00,,,0.00,WUHU216HW,2013-03-20 13:22:00,
2013-03-20 07:27:00,28.0,22.3,29.86,ESE,113,0.0,4.6,79,0.00,,,0.00,WUHU216HW,2013-03-20 13:27:00,
2013-03-20 07:32:00,28.0,22.3,29.86,ESE,113,0.0,0.0,79,0.00,,,0.00,WUHU216HW,2013-03-20 13:32:00,
2013-03-20 07:37:00,27.6,22.2,29.86,ENE,68,5.1,5.1,80,0.00,,,0.00,WUHU216HW,2013-03-20 13:37:00,
2013-03-20 07:42:00,27.6,21.9,29.86,ENE,68,2.4,5.1,79,0.00,,,0.00,WUHU216HW,2013-03-20 13:42:00,
2013-03-20 07:47:00,27.3,21.6,29.86,ENE,68,0.0,4.6,79,0.00,,,0.00,WUHU216HW,2013-03-20 13:47:00,
2013-03-20 07:52:00,27.3,21.6,29.86,ENE,68,2.0,2.2,79,0.00,,,0.00,WUHU216HW,2013-03-20 13:52:00,
2013-03-20 07:57:00,27.1,21.4,29.86,ENE,68,0.0,2.6,79,0.00,,,0.00,WUHU216HW,2013-03-20 13:57:00,
2013-03-20 08:02:00,27.1,21.4,29.86,ENE,68,0.0,2.6,79,0.00,,,0.00,WUHU216HW,2013-03-20 14:02:00,
2013-03-20 08:07:00,27.1,21.4,29.86,ENE,68,0.0,0.0,79,0.00,,,0.00,WUHU216HW,2013-03-20 14:07:00,
2013-03-20 08:12:00,27.1,21.7,29.86,ENE,68,0.0,0.0,80,0.00,,,0.00,WUHU216HW,2013-03-20 14:12:00,
2013-03-20 08:17:00,27.3,21.9,29.86,NE,45,0.0,0.0,80,0.00,,,0.00,WUHU216HW,2013-03-20 14:17:00,
2013-03-20 08:23:00,27.3,22.2,29.86,ENE,68,0.0,0.0,81,0.00,,,0.00,WUHU216HW,2013-03-20 14:23:00,
2013-03-20 08:28:00,27.3,21.9,29.85,ENE,68,0.0,0.0,80,0.00,,,0.00,WUHU216HW,2013-03-20 14:28:00,
2013-03-20 08:33:00,27.3,21.9,29.85,ENE,68,0.0,0.0,80,0.00,,,0.00,WUHU216HW,2013-03-20 14:33:00,
2013-03-20 08:38:00,27.3,22.2,29.85,NE,45,0.0,0.0,81,0.00,,,0.00,WUHU216HW,2013-03-20 14:38:00,
2013-03-20 08:43:00,27.3,22.2,29.85,NE,45,0.0,0.0,81,0.00,,,0.00,WUHU216HW,2013-03-20 14:43:00,
2013-03-20 08:48:00,27.3,22.2,29.85,NE,45,0.0,0.0,81,0.00,,,0.00,WUHU216HW,2013-03-20 14:48:00,
2013-03-20 08:53:00,27.3,22.2,29.85,NE,45,0.0,0.0,81,0.00,,,0.00,WUHU216HW,2013-03-20 14:53:00,
2013-03-20 08:58:00,27.3,22.2,29.84,NE,45,0.0,0.0,81,0.00,,,0.00,WUHU216HW,2013-03-20 14:58:00,
2013-03-20 09:03:00,27.5,22.4,29.85,NE,45,0.0,0.0,81,0.00,,,0.00,WUHU216HW,2013-03-20 15:03:00,
2013-03-20 09:08:00,27.6,22.8,29.84,ESE,113,0.0,0.0,82,0.00,,,0.00,WUHU216HW,2013-03-20 15:08:00,
2013-03-20 09:13:00,27.6,22.8,29.84,NE,45,4.2,5.5,82,0.00,,,0.00,WUHU216HW,2013-03-20 15:13:00,
2013-03-20 09:18:00,27.5,22.9,29.84,ENE,68,0.0,5.5,83,0.00,,,0.00,WUHU216HW,2013-03-20 15:18:00,
2013-03-20 09:23:00,27.5,22.9,29.84,ESE,113,0.0,1.7,83,0.00,,,0.00,WUHU216HW,2013-03-20 15:23:00,
2013-03-20 09:28:00,27.6,23.1,29.84,ESE,113,0.0,1.5,83,0.00,,,0.00,WUHU216HW,2013-03-20 15:28:00,
2013-03-20 09:34:00,28.0,23.5,29.84,ESE,113,0.0,0.0,83,0.00,,,0.00,WUHU216HW,2013-03-20 15:34:00,
2013-03-20 09:39:00,28.0,23.5,29.84,ESE,113,0.0,0.0,83,0.00,,,0.00,WUHU216HW,2013-03-20 15:39:00,
2013-03-20 09:44:00,28.2,23.6,29.83,ESE,113,0.0,0.0,83,0.00,,,0.00,WUHU216HW,2013-03-20 15:44:00,
2013-03-20 09:49:00,28.5,24.0,29.83,ESE,113,0.0,0.0,83,0.00,,,0.00,WUHU216HW,2013-03-20 15:49:00,
2013-03-20 09:54:00,28.5,24.5,29.83,ESE,113,0.0,0.0,84,0.00,,,0.00,WUHU216HW,2013-03-20 15:54:00,
2013-03-20 09:59:00,28.7,24.5,29.83,NE,45,0.0,3.1,84,0.00,,,0.00,WUHU216HW,2013-03-20 15:59:00,
2013-03-20 10:04:00,28.9,24.4,29.82,NE,45,0.0,3.1,83,0.00,,,0.00,WUHU216HW,2013-03-20 16:04:00,
2013-03-20 10:09:00,29.3,25.0,29.82,NE,45,0.0,0.0,84,0.00,,,0.00,WUHU216HW,2013-03-20 16:09:00,
2013-03-20 10:14:00,29.4,25.2,29.82,NE,45,0.0,0.0,84,0.00,,,0.00,WUHU216HW,2013-03-20 16:14:00,
2013-03-20 10:21:00,30.0,25.4,29.83,NE,45,0.0,0.0,83,0.00,,,0.00,WUHU216HW,2013-03-20 16:21:00,
2013-03-20 10:26:00,30.3,25.8,29.82,NE,45,0.0,0.0,83,0.00,,,0.00,WUHU216HW,2013-03-20 16:26:00,
2013-03-20 10:31:00,30.7,26.2,29.82,NE,45,0.0,0.0,83,0.00,,,0.00,WUHU216HW,2013-03-20 16:31:00,
2013-03-20 10:36:00,31.1,26.5,29.82,NE,45,0.0,0.0,83,0.00,,,0.00,WUHU216HW,2013-03-20 16:36:00,
2013-03-20 10:41:00,31.2,26.7,29.82,NE,45,2.6,2.6,83,0.00,,,0.00,WUHU216HW,2013-03-20 16:41:00,
2013-03-20 10:47:00,31.6,27.1,29.81,NE,45,0.0,2.6,83,0.00,,,0.00,WUHU216HW,2013-03-20 16:47:00,
2013-03-20 10:52:00,32.0,27.4,29.82,NE,45,0.0,0.0,83,0.00,,,0.00,WUHU216HW,2013-03-20 16:52:00,
2013-03-20 10:57:00,32.5,27.9,29.82,North,0,1.5,1.5,83,0.00,,,0.00,WUHU216HW,2013-03-20 16:57:00,
2013-03-20 11:02:00,32.9,28.1,29.81,NNW,338,0.0,1.5,83,0.00,,,0.00,WUHU216HW,2013-03-20 17:02:00,
2013-03-20 11:07:00,33.2,28.7,29.81,NE,45,0.0,0.0,83,0.00,,,0.00,WUHU216HW,2013-03-20 17:07:00,
2013-03-20 11:12:00,33.6,28.6,29.81,NE,45,1.7,2.9,82,0.00,,,0.00,WUHU216HW,2013-03-20 17:12:00,
2013-03-20 11:17:00,33.9,28.7,29.81,NE,45,0.0,2.9,82,0.00,,,0.00,WUHU216HW,2013-03-20 17:17:00,
2013-03-20 11:22:00,33.9,28.9,29.81,NE,45,0.0,3.8,82,0.00,,,0.00,WUHU216HW,2013-03-20 17:22:00,
2013-03-20 11:27:00,34.3,29.6,29.81,ESE,113,6.4,6.4,83,0.00,,,0.00,WUHU216HW,2013-03-20 17:27:00,
2013-03-20 11:32:00,34.7,29.9,29.81,NE,45,0.0,6.4,83,0.00,,,0.00,WUHU216HW,2013-03-20 17:32:00,
2013-03-20 11:37:00,35.2,30.2,29.81,NE,45,2.9,5.3,82,0.00,,,0.00,WUHU216HW,2013-03-20 17:37:00,
2013-03-20 11:42:00,35.7,30.4,29.81,NE,45,0.0,4.6,81,0.00,,,0.00,WUHU216HW,2013-03-20 17:42:00,
2013-03-20 11:47:00,36.3,31.0,29.80,ENE,68,0.0,4.6,81,0.00,,,0.00,WUHU216HW,2013-03-20 17:47:00,
2013-03-20 11:52:00,37.0,31.4,29.80,East,90,4.6,4.6,80,0.00,,,0.00,WUHU216HW,2013-03-20 17:52:00,
2013-03-20 11:58:00,37.7,31.5,29.79,NE,45,3.3,6.4,78,0.00,,,0.00,WUHU216HW,2013-03-20 17:58:00,
2013-03-20 12:03:00,37.9,31.3,29.79,NE,45,3.1,6.4,77,0.00,,,0.00,WUHU216HW,2013-03-20 18:03:00,
2013-03-20 12:08:00,38.1,31.5,29.79,ENE,68,2.0,4.2,77,0.00,,,0.00,WUHU216HW,2013-03-20 18:08:00,
2013-03-20 12:13:00,37.9,31.0,29.79,NE,45,0.0,3.1,76,0.00,,,0.00,WUHU216HW,2013-03-20 18:13:00,
2013-03-20 12:18:00,37.9,31.3,29.79,NNE,23,0.0,4.9,77,0.00,,,0.00,WUHU216HW,2013-03-20 18:18:00,
2013-03-20 12:23:00,37.7,31.1,29.79,SSE,158,0.0,4.9,77,0.00,,,0.00,WUHU216HW,2013-03-20 18:23:00,
2013-03-20 12:28:00,37.5,31.3,29.79,SSW,203,2.9,3.3,78,0.00,,,0.00,WUHU216HW,2013-03-20 18:28:00,
2013-03-20 12:33:00,37.9,32.0,29.79,West,270,0.0,8.5,79,0.00,,,0.00,WUHU216HW,2013-03-20 18:33:00,
2013-03-20 12:38:00,38.1,32.1,29.78,SW,225,3.1,13.8,79,0.00,,,0.00,WUHU216HW,2013-03-20 18:38:00,
2013-03-20 12:43:00,38.8,32.9,29.78,SW,225,0.0,7.3,79,0.00,,,0.00,WUHU216HW,2013-03-20 18:43:00,
2013-03-20 12:48:00,39.3,33.0,29.78,South,180,0.0,5.3,78,0.00,,,0.00,WUHU216HW,2013-03-20 18:48:00,
2013-03-20 12:53:00,39.7,33.4,29.78,SW,225,5.5,5.5,78,0.00,,,0.00,WUHU216HW,2013-03-20 18:53:00,
2013-03-20 12:58:00,39.9,33.2,29.78,SSE,158,0.0,7.1,77,0.00,,,0.00,WUHU216HW,2013-03-20 18:58:00,
2013-03-20 13:04:00,40.2,33.2,29.78,WSW,248,0.0,7.1,76,0.00,,,0.00,WUHU216HW,2013-03-20 19:04:00,
2013-03-20 13:09:00,40.6,33.6,29.78,WSW,248,0.0,9.1,76,0.00,,,0.00,WUHU216HW,2013-03-20 19:09:00,
2013-03-20 13:14:00,40.8,34.0,29.78,WSW,248,0.0,9.1,77,0.00,,,0.00,WUHU216HW,2013-03-20 19:14:00,
2013-03-20 13:19:00,40.8,33.7,29.78,West,270,0.0,4.2,76,0.00,,,0.00,WUHU216HW,2013-03-20 19:19:00,
2013-03-20 13:24:00,41.1,34.1,29.77,SW,225,0.0,4.2,76,0.00,,,0.00,WUHU216HW,2013-03-20 19:24:00,
2013-03-20 13:29:00,41.1,33.8,29.77,WSW,248,0.0,3.3,75,0.00,,,0.00,WUHU216HW,2013-03-20 19:29:00,
2013-03-20 13:34:00,41.1,33.8,29.77,SW,225,4.6,4.6,75,0.00,,,0.00,WUHU216HW,2013-03-20 19:34:00,
2013-03-20 13:39:00,41.1,33.4,29.77,WSW,248,4.9,11.1,74,0.00,,,0.00,WUHU216HW,2013-03-20 19:39:00,
2013-03-20 13:44:00,40.8,33.4,29.77,SW,225,1.7,11.1,75,0.00,,,0.00,WUHU216HW,2013-03-20 19:44:00,
2013-03-20 13:49:00,40.8,33.7,29.76,SW,225,0.0,4.2,76,0.00,,,0.00,WUHU216HW,2013-03-20 19:49:00,
2013-03-20 13:54:00,40.4,33.7,29.77,SW,225,1.7,7.1,77,0.00,,,0.00,WUHU216HW,2013-03-20 19:54:00,
2013-03-20 13:59:00,40.2,33.5,29.76,SW,225,2.0,7.1,77,0.00,,,0.00,WUHU216HW,2013-03-20 19:59:00,
2013-03-20 14:04:00,40.2,33.9,29.76,SW,225,3.1,5.5,78,0.00,,,0.00,WUHU216HW,2013-03-20 20:04:00,
2013-03-20 14:09:00,40.6,34.2,29.75,SW,225,0.0,5.8,78,0.00,,,0.00,WUHU216HW,2013-03-20 20:09:00,
2013-03-20 14:14:00,41.0,34.7,29.75,WSW,248,1.5,7.3,78,0.00,,,0.00,WUHU216HW,2013-03-20 20:14:00,
2013-03-20 14:19:00,41.7,35.3,29.75,SSE,158,10.9,10.9,78,0.00,,,0.00,WUHU216HW,2013-03-20 20:19:00,
2013-03-20 14:25:00,42.4,35.7,29.75,West,270,3.3,10.9,77,0.00,,,0.00,WUHU216HW,2013-03-20 20:25:00,
2013-03-20 14:30:00,42.9,35.5,29.74,SSW,203,5.1,8.5,75,0.00,,,0.00,WUHU216HW,2013-03-20 20:30:00,
2013-03-20 14:35:00,43.5,36.1,29.74,South,180,12.0,12.0,74,0.00,,,0.00,WUHU216HW,2013-03-20 20:35:00,
2013-03-20 14:40:00,43.8,35.7,29.74,SSE,158,0.0,12.0,73,0.00,,,0.00,WUHU216HW,2013-03-20 20:40:00,
2013-03-20 14:45:00,44.4,36.2,29.73,SW,225,8.9,8.9,73,0.00,,,0.00,WUHU216HW,2013-03-20 20:45:00,
2013-03-20 14:50:00,44.4,35.9,29.73,SW,225,3.8,8.9,72,0.00,,,0.00,WUHU216HW,2013-03-20 20:50:00,
2013-03-20 14:55:00,44.4,35.5,29.73,SW,225,1.7,7.8,71,0.00,,,0.00,WUHU216HW,2013-03-20 20:55:00,
2013-03-20 15:00:00,44.4,35.5,29.73,SW,225,3.1,4.4,71,0.00,,,0.00,WUHU216HW,2013-03-20 21:00:00,
2013-03-20 15:05:00,44.4,35.2,29.72,SW,225,4.0,9.1,70,0.00,,,0.00,WUHU216HW,2013-03-20 21:05:00,
2013-03-20 15:10:00,44.9,36.1,29.72,WSW,248,4.9,9.1,71,0.00,,,0.00,WUHU216HW,2013-03-20 21:10:00,
2013-03-20 15:15:00,44.9,35.7,29.72,WSW,248,1.3,11.6,70,0.00,,,0.00,WUHU216HW,2013-03-20 21:15:00,
2013-03-20 15:21:00,45.1,35.9,29.71,SSW,203,2.6,11.6,70,0.00,,,0.00,WUHU216HW,2013-03-20 21:21:00,
2013-03-20 15:26:00,45.1,36.1,29.71,SW,225,0.0,9.6,70,0.00,,,0.00,WUHU216HW,2013-03-20 21:26:00,
2013-03-20 15:31:00,45.5,35.9,29.70,SW,225,4.9,14.7,69,0.00,,,0.00,WUHU216HW,2013-03-20 21:31:00,
2013-03-20 15:36:00,45.8,35.8,29.70,South,180,10.2,14.7,68,0.00,,,0.00,WUHU216HW,2013-03-20 21:36:00,
2013-03-20 15:41:00,46.0,36.4,29.70,SW,225,6.7,13.1,69,0.00,,,0.00,WUHU216HW,2013-03-20 21:41:00,
2013-03-20 15:46:00,46.2,36.2,29.69,SW,225,3.1,9.1,68,0.00,,,0.00,WUHU216HW,2013-03-20 21:46:00,
2013-03-20 15:51:00,46.5,36.5,29.69,WNW,293,0.0,10.2,68,0.00,,,0.00,WUHU216HW,2013-03-20 21:51:00,
2013-03-20 15:56:00,47.1,36.6,29.68,South,180,0.0,10.2,67,0.00,,,0.00,WUHU216HW,2013-03-20 21:56:00,
2013-03-20 16:02:00,47.3,36.4,29.68,SSE,158,2.9,8.7,66,0.00,,,0.00,WUHU216HW,2013-03-20 22:02:00,
2013-03-20 16:07:00,47.3,36.0,29.68,West,270,0.0,8.7,65,0.00,,,0.00,WUHU216HW,2013-03-20 22:07:00,
2013-03-20 16:12:00,47.3,36.4,29.68,SW,225,2.4,8.5,66,0.00,,,0.00,WUHU216HW,2013-03-20 22:12:00,
2013-03-20 16:17:00,47.1,36.3,29.68,SW,225,4.2,5.3,66,0.00,,,0.00,WUHU216HW,2013-03-20 22:17:00,
2013-03-20 16:22:00,46.9,36.1,29.68,South,180,1.1,6.4,66,0.00,,,0.00,WUHU216HW,2013-03-20 22:22:00,
2013-03-20 16:27:00,46.7,35.9,29.68,SSW,203,6.7,6.9,66,0.00,,,0.00,WUHU216HW,2013-03-20 22:27:00,
2013-03-20 16:32:00,46.5,35.7,29.68,WSW,248,3.3,13.4,66,0.00,,,0.00,WUHU216HW,2013-03-20 22:32:00,
2013-03-20 16:37:00,46.5,35.7,29.68,South,180,5.8,13.4,66,0.00,,,0.00,WUHU216HW,2013-03-20 22:37:00,
2013-03-20 16:42:00,46.5,35.7,29.67,SW,225,2.9,11.8,66,0.00,,,0.00,WUHU216HW,2013-03-20 22:42:00,
2013-03-20 16:47:00,46.5,35.7,29.67,WSW,248,3.8,11.8,66,0.00,,,0.00,WUHU216HW,2013-03-20 22:47:00,
2013-03-20 16:52:00,46.5,35.7,29.67,South,180,0.0,9.1,66,0.00,,,0.00,WUHU216HW,2013-03-20 22:52:00,
2013-03-20 16:57:00,46.5,35.7,29.67,SW,225,2.4,5.8,66,0.00,,,0.00,WUHU216HW,2013-03-20 22:57:00,
2013-03-20 17:02:00,46.4,35.6,29.67,SSW,203,1.5,6.7,66,0.00,,,0.00,WUHU216HW,2013-03-20 23:02:00,
2013-03-20 17:07:00,46.2,35.4,29.67,West,270,0.0,5.3,66,0.00,,,0.00,WUHU216HW,2013-03-20 23:07:00,
2013-03-20 17:12:00,46.0,35.6,29.67,West,270,2.6,2.6,67,0.00,,,0.00,WUHU216HW,2013-03-20 23:12:00,
2013-03-20 17:17:00,45.6,35.7,29.67,WNW,293,3.1,4.6,68,0.00,,,0.00,WUHU216HW,2013-03-20 23:17:00,
2013-03-20 17:23:00,45.1,36.3,29.69,NNW,338,3.1,4.9,71,0.00,,,0.00,WUHU216HW,2013-03-20 23:23:00,
2013-03-20 17:28:00,44.4,36.1,29.72,WSW,248,9.1,11.4,73,0.00,,,0.00,WUHU216HW,2013-03-20 23:28:00,
2013-03-20 17:33:00,42.6,34.9,29.72,West,270,8.0,11.4,74,0.00,,,0.00,WUHU216HW,2013-03-20 23:33:00,
2013-03-20 17:38:00,41.1,34.1,29.72,WSW,248,3.5,11.4,76,0.00,,,0.00,WUHU216HW,2013-03-20 23:38:00,
2013-03-20 17:43:00,39.9,33.5,29.72,West,270,6.0,11.4,78,0.00,,,0.00,WUHU216HW,2013-03-20 23:43:00,
2013-03-20 17:48:00,39.3,33.4,29.73,West,270,3.1,10.2,79,0.00,,,0.00,WUHU216HW,2013-03-20 23:48:00,
2013-03-20 17:53:00,38.8,33.5,29.73,West,270,8.7,10.2,81,0.00,,,0.00,WUHU216HW,2013-03-20 23:53:00,
2013-03-20 17:58:00,38.4,33.1,29.73,WSW,248,6.2,10.9,81,0.00,,,0.00,WUHU216HW,2013-03-20 23:58:00,
2013-03-20 18:03:00,37.9,32.9,29.73,West,270,4.6,10.9,82,0.00,,,0.00,WUHU216HW,2013-03-21 00:03:00,
2013-03-20 18:08:00,37.5,32.5,29.73,WSW,248,7.3,7.6,82,0.00,,,0.00,WUHU216HW,2013-03-21 00:08:00,
2013-03-20 18:13:00,37.2,32.2,29.74,WSW,248,10.2,10.2,82,0.00,,,0.00,WUHU216HW,2013-03-21 00:13:00,
2013-03-20 18:18:00,37.2,32.5,29.72,SSW,203,7.8,10.2,83,0.00,,,0.00,WUHU216HW,2013-03-21 00:18:00,
2013-03-20 18:23:00,36.8,32.1,29.72,SW,225,4.6,7.8,83,0.00,,,0.00,WUHU216HW,2013-03-21 00:23:00,
2013-03-20 18:28:00,36.6,31.9,29.72,SW,225,6.9,8.9,83,0.00,,,0.00,WUHU216HW,2013-03-21 00:28:00,
2013-03-20 18:34:00,36.3,31.6,29.72,SSW,203,8.7,8.9,83,0.00,,,0.00,WUHU216HW,2013-03-21 00:34:00,
2013-03-20 18:39:00,36.3,31.8,29.72,SW,225,6.2,8.9,84,0.00,,,0.00,WUHU216HW,2013-03-21 00:39:00,
2013-03-20 18:44:00,36.3,31.8,29.72,SW,225,2.6,8.0,84,0.00,,,0.00,WUHU216HW,2013-03-21 00:44:00,
2013-03-20 18:49:00,36.1,31.7,29.71,SW,225,0.0,8.0,84,0.00,,,0.00,WUHU216HW,2013-03-21 00:49:00,
2013-03-20 18:54:00,36.1,31.4,29.71,SW,225,1.3,7.8,83,0.00,,,0.00,WUHU216HW,2013-03-21 00:54:00,
2013-03-20 18:59:00,36.1,31.7,29.71,SW,225,1.5,6.7,84,0.00,,,0.00,WUHU216HW,2013-03-21 00:59:00,
2013-03-20 19:04:00,36.1,31.5,29.71,SW,225,2.4,6.7,84,0.00,,,0.00,WUHU216HW,2013-03-21 01:04:00,
2013-03-20 19:09:00,35.9,31.5,29.70,SW,225,2.4,5.5,84,0.00,,,0.00,WUHU216HW,2013-03-21 01:09:00,
2013-03-20 19:14:00,35.7,31.3,29.68,SSW,203,5.8,8.2,84,0.00,,,0.00,WUHU216HW,2013-03-21 01:14:00,
2013-03-20 19:19:00,35.7,31.3,29.68,SW,225,0.0,8.2,84,0.00,,,0.00,WUHU216HW,2013-03-21 01:19:00,
2013-03-20 19:24:00,35.7,31.3,29.69,SW,225,1.1,6.9,84,0.00,,,0.00,WUHU216HW,2013-03-21 01:24:00,
2013-03-20 19:29:00,35.7,31.3,29.70,SW,225,3.5,6.7,84,0.00,,,0.00,WUHU216HW,2013-03-21 01:29:00,
2013-03-20 19:34:00,35.7,31.3,29.70,SSW,203,2.0,10.0,84,0.00,,,0.00,WUHU216HW,2013-03-21 01:34:00,
2013-03-20 19:39:00,35.7,31.3,29.71,SW,225,5.3,10.0,84,0.00,,,0.00,WUHU216HW,2013-03-21 01:39:00,
2013-03-20 19:44:00,35.7,31.3,29.71,SSW,203,2.4,5.3,84,0.00,,,0.00,WUHU216HW,2013-03-21 01:44:00,
2013-03-20 19:49:00,35.6,30.8,29.72,SSW,203,4.9,5.3,83,0.00,,,0.00,WUHU216HW,2013-03-21 01:49:00,
2013-03-20 19:55:00,35.6,30.8,29.73,SW,225,1.5,4.9,83,0.00,,,0.00,WUHU216HW,2013-03-21 01:55:00,
2013-03-20 20:00:00,35.7,31.0,29.73,SSW,203,3.8,3.8,83,0.00,,,0.00,WUHU216HW,2013-03-21 02:00:00,
2013-03-20 20:05:00,35.7,31.0,29.74,SW,225,4.0,7.6,83,0.00,,,0.00,WUHU216HW,2013-03-21 02:05:00,
2013-03-20 20:10:00,35.7,31.0,29.74,West,270,0.0,7.6,83,0.00,,,0.00,WUHU216HW,2013-03-21 02:10:00,
2013-03-20 20:15:00,35.7,31.0,29.75,SW,225,1.1,3.8,83,0.00,,,0.00,WUHU216HW,2013-03-21 02:15:00,
2013-03-20 20:20:00,35.7,31.0,29.75,SW,225,0.0,3.8,83,0.00,,,0.00,WUHU216HW,2013-03-21 02:20:00,
2013-03-20 20:25:00,35.6,30.8,29.75,SW,225,2.6,2.6,83,0.00,,,0.00,WUHU216HW,2013-03-21 02:25:00,
2013-03-20 20:30:00,35.4,30.7,29.75,West,270,2.4,3.5,83,0.00,,,0.00,WUHU216HW,2013-03-21 02:30:00,
2013-03-20 20:35:00,35.4,30.7,29.75,WSW,248,0.0,3.5,83,0.00,,,0.00,WUHU216HW,2013-03-21 02:35:00,
2013-03-20 20:40:00,35.4,30.7,29.76,SSW,203,4.6,4.9,83,0.00,,,0.00,WUHU216HW,2013-03-21 02:40:00,
2013-03-20 20:45:00,35.2,30.5,29.76,SSW,203,4.4,8.9,83,0.00,,,0.00,WUHU216HW,2013-03-21 02:45:00,
2013-03-20 20:50:00,35.4,30.4,29.76,SSW,203,5.5,8.9,82,0.00,,,0.00,WUHU216HW,2013-03-21 02:50:00,
2013-03-20 20:55:00,35.2,30.2,29.76,SSW,203,4.6,14.9,82,0.00,,,0.00,WUHU216HW,2013-03-21 02:55:00,
2013-03-20 21:00:00,35.2,29.9,29.76,SSW,203,15.8,15.8,81,0.00,,,0.00,WUHU216HW,2013-03-21 03:00:00,
2013-03-20 21:05:00,35.2,29.6,29.76,South,180,6.9,15.8,80,0.00,,,0.00,WUHU216HW,2013-03-21 03:05:00,
2013-03-20 21:11:00,35.2,29.6,29.76,SSW,203,12.0,16.1,80,0.00,,,0.00,WUHU216HW,2013-03-21 03:11:00,
2013-03-20 21:16:00,35.2,29.6,29.76,South,180,4.4,16.1,80,0.00,,,0.00,WUHU216HW,2013-03-21 03:16:00,
2013-03-20 21:21:00,35.2,29.3,29.76,SW,225,0.0,15.8,79,0.00,,,0.00,WUHU216HW,2013-03-21 03:21:00,
2013-03-20 21:26:00,35.2,29.3,29.76,SW,225,4.4,15.8,79,0.00,,,0.00,WUHU216HW,2013-03-21 03:26:00,
2013-03-20 21:31:00,35.4,29.1,29.76,SW,225,2.0,15.2,78,0.00,,,0.00,WUHU216HW,2013-03-21 03:31:00,
2013-03-20 21:36:00,35.4,29.1,29.76,WSW,248,9.1,15.2,78,0.00,,,0.00,WUHU216HW,2013-03-21 03:36:00,
2013-03-20 21:41:00,35.2,29.1,29.76,WSW,248,2.4,9.1,78,0.00,,,0.00,WUHU216HW,2013-03-21 03:41:00,
2013-03-20 21:47:00,35.2,29.3,29.78,West,270,3.3,6.2,79,0.00,,,0.00,WUHU216HW,2013-03-21 03:47:00,
2013-03-20 21:52:00,34.8,28.9,29.79,WSW,248,3.8,6.0,79,0.00,,,0.00,WUHU216HW,2013-03-21 03:52:00,
2013-03-20 21:57:00,34.7,29.1,29.79,WSW,248,1.3,6.7,80,0.00,,,0.00,WUHU216HW,2013-03-21 03:57:00,
2013-03-20 22:00:00,34.3,29.0,29.79,SW,225,9.8,10.2,81,0.00,,,0.00,WUHU216HW,2013-03-21 04:00:00,
2013-03-20 22:06:00,34.1,29.1,29.79,SSW,203,6.4,10.2,82,0.00,,,0.00,WUHU216HW,2013-03-21 04:06:00,
2013-03-20 22:11:00,33.8,28.7,29.78,SW,225,2.6,8.5,82,0.00,,,0.00,WUHU216HW,2013-03-21 04:11:00,
2013-03-20 22:16:00,33.6,28.6,29.78,WSW,248,4.6,13.1,82,0.00,,,0.00,WUHU216HW,2013-03-21 04:16:00,
2013-03-20 22:21:00,33.6,28.6,29.78,WSW,248,3.8,13.1,82,0.00,,,0.00,WUHU216HW,2013-03-21 04:21:00,
2013-03-20 22:26:00,33.4,28.4,29.78,WSW,248,4.9,11.1,82,0.00,,,0.00,WUHU216HW,2013-03-21 04:26:00,
2013-03-20 22:32:00,33.4,28.4,29.78,SW,225,4.0,11.1,82,0.00,,,0.00,WUHU216HW,2013-03-21 04:32:00,
2013-03-20 22:37:00,33.4,28.1,29.78,WSW,248,3.1,10.0,81,0.00,,,0.00,WUHU216HW,2013-03-21 04:37:00,
2013-03-20 22:42:00,33.4,28.1,29.79,SW,225,3.5,13.6,81,0.00,,,0.00,WUHU216HW,2013-03-21 04:42:00,
2013-03-20 22:47:00,33.4,28.1,29.79,SW,225,3.8,13.6,81,0.00,,,0.00,WUHU216HW,2013-03-21 04:47:00,
2013-03-20 22:52:00,33.2,28.0,29.79,West,270,2.9,7.8,81,0.00,,,0.00,WUHU216HW,2013-03-21 04:52:00,
2013-03-20 22:57:00,33.2,28.0,29.79,SW,225,2.0,4.6,81,0.00,,,0.00,WUHU216HW,2013-03-21 04:57:00,
2013-03-20 23:02:00,33.2,28.0,29.79,SW,225,2.4,3.3,81,0.00,,,0.00,WUHU216HW,2013-03-21 05:02:00,
2013-03-20 23:07:00,33.0,27.8,29.78,SW,225,2.6,2.6,81,0.00,,,0.00,WUHU216HW,2013-03-21 05:07:00,
2013-03-20 23:12:00,32.9,27.6,29.78,SW,225,4.9,4.9,81,0.00,,,0.00,WUHU216HW,2013-03-21 05:12:00,
2013-03-20 23:17:00,32.9,27.6,29.79,SW,225,0.8,6.0,81,0.00,,,0.00,WUHU216HW,2013-03-21 05:17:00,
2013-03-20 23:22:00,32.7,27.8,29.79,SW,225,2.9,6.0,82,0.00,,,0.00,WUHU216HW,2013-03-21 05:22:00,
2013-03-20 23:27:00,32.7,27.8,29.80,SW,225,0.0,3.5,82,0.00,,,0.00,WUHU216HW,2013-03-21 05:27:00,
2013-03-20 23:32:00,32.7,27.8,29.81,SW,225,2.4,3.1,82,0.00,,,0.00,WUHU216HW,2013-03-21 05:32:00,
2013-03-20 23:38:00,32.5,27.9,29.81,SW,225,2.6,4.2,83,0.00,,,0.00,WUHU216HW,2013-03-21 05:38:00,
2013-03-20 23:43:00,32.3,28.0,29.81,SW,225,0.0,4.2,84,0.00,,,0.00,WUHU216HW,2013-03-21 05:43:00,
2013-03-20 23:48:00,32.1,27.7,29.81,SW,225,2.9,2.9,84,0.00,,,0.00,WUHU216HW,2013-03-21 05:48:00,
2013-03-20 23:53:00,31.8,27.5,29.81,SW,225,0.0,2.9,84,0.00,,,0.00,WUHU216HW,2013-03-21 05:53:00,
2013-03-20 23:58:00,31.8,27.5,29.81,SW,225,0.0,2.6,84,0.00,,,0.00,WUHU216HW,2013-03-21 05:58:00,